Wind_Speed
32 32 31 30 30 31 31 30 30 29 28 27 26 25 23 21 20 19 19 18 17 17 17 17 16 15 15 14 13 12 12 11 11 11 10 10 10 11 12 12 13 13 13 13
32 32 32 32 32 32 32 31 31 30 29 28 27 26 24 23 22 21 21 20 19 19 18 18 18 17 16 15 15 15 14 13 13 13 12 11 12 13 14 14 14 14 15 15
33 33 33 34 33 32 32 32 31 30 29 28 27 27 26 25 23 23 23 23 22 21 21 20 20 18 18 18 17 17 16 16 15 15 14 13 14 14 14 15 16 16 17 17
33 33 35 33 32 32 32 32 32 31 30 29 28 27 27 27 26 25 25 24 23 23 23 22 22 21 20 19 19 18 18 18 18 18 16 16 16 16 16 17 17 17 18 18
32 33 34 33 32 31 32 32 32 32 31 30 29 28 28 28 27 27 26 25 25 25 25 24 23 22 22 22 20 20 20 21 21 20 19 19 18 18 18 19 19 19 19 19
33 33 33 32 31 31 31 32 31 32 32 31 30 29 29 28 28 28 27 27 26 26 26 26 25 24 23 22 22 22 23 23 23 22 21 21 21 21 21 21 21 21 21 20
33 33 32 32 32 31 31 31 30 31 31 31 31 30 29 29 28 28 28 28 28 28 27 27 26 26 25 25 25 25 25 25 25 24 24 24 23 23 23 23 23 23 23 22
34 34 33 34 33 33 32 30 30 30 30 30 30 29 29 29 29 29 30 30 29 29 29 28 28 28 28 27 27 27 27 26 26 26 26 25 25 25 25 25 25 25 25 24
37 36 35 35 34 32 31 30 30 29 29 28 29 29 30 30 30 30 30 30 29 29 30 29 29 29 29 29 29 29 28 27 26 26 26 26 27 27 27 27 26 26 26 26
37 37 37 36 34 32 30 30 29 29 29 29 29 30 30 30 31 32 32 32 31 30 31 31 31 30 30 29 29 29 29 28 27 28 28 29 29 28 27 27 27 27 27 28
37 37 36 36 35 33 31 30 30 30 30 30 30 31 31 31 31 31 30 30 31 31 32 32 31 32 31 30 30 30 29 29 29 30 30 29 29 30 29 29 30 30 29 29
36 36 36 34 34 33 32 31 31 31 31 31 31 31 30 31 31 31 30 30 31 31 32 32 32 32 32 32 32 31 30 31 31 32 31 30 30 29 29 31 31 30 30 30
34 35 35 33 33 33 32 31 32 32 32 31 30 30 30 30 31 31 31 31 31 31 31 32 33 32 33 33 33 33 32 32 33 32 31 30 30 29 30 30 30 30 31 31
33 34 34 33 33 33 33 32 32 31 32 32 31 30 30 31 32 32 32 32 32 32 33 33 33 33 34 34 34 32 32 32 31 30 31 31 31 31 31 31 31 32 32 32
31 31 31 32 32 32 32 32 32 32 31 31 30 30 30 30 31 32 33 32 33 33 33 33 33 33 34 34 34 33 32 32 31 31 31 32 32 32 32 32 32 33 32 31
30 30 30 30 30 30 31 31 32 32 32 31 31 31 31 32 32 32 32 33 32 32 33 34 34 34 34 34 33 33 32 32 32 32 32 32 33 33 33 33 33 32 31 31
30 29 28 28 28 29 30 30 31 32 32 31 31 31 32 32 32 31 32 33 32 33 33 33 34 34 34 34 33 33 32 33 33 33 33 33 33 34 33 33 32 32 32 32
29 29 29 28 28 29 29 30 30 30 30 30 31 32 32 33 33 33 33 33 34 35 35 35 35 36 35 34 34 34 34 34 34 34 35 35 34 34 33 33 32 32 32 32
28 28 28 28 29 30 30 30 30 30 31 31 32 31 31 32 33 33 34 34 34 35 36 36 37 37 36 36 36 36 35 35 35 35 35 34 34 33 33 32 32 32 32 32
25 25 26 27 28 29 29 29 30 30 31 32 32 32 32 32 32 33 34 33 33 34 35 36 37 36 36 36 36 36 36 35 35 35 34 34 33 32 32 32 32 32 32 32
24 24 25 26 27 28 28 29 30 30 29 30 31 32 32 32 32 33 34 34 34 34 34 35 35 34 34 34 35 35 36 36 35 34 33 33 32 32 31 31 31 31 31 31
22 23 24 25 26 26 27 27 28 29 29 30 31 31 32 32 32 33 33 34 34 34 34 34 34 33 33 33 33 33 33 33 33 32 32 31 30 30 31 31 31 31 31 30
21 22 22 23 24 24 25 25 25 26 27 28 29 30 31 32 32 32 32 32 32 32 33 33 33 32 32 32 31 31 32 31 31 31 31 30 29 29 30 30 30 30 30 29
21 21 22 22 22 22 23 24 24 24 25 26 26 27 28 28 29 30 30 30 31 30 30 30 31 31 31 31 31 30 30 30 30 30 29 28 27 27 27 28 28 28 28 27
20 20 21 21 21 22 22 23 23 23 24 24 25 25 25 25 26 27 27 28 28 28 29 29 29 29 29 29 30 29 28 28 28 28 27 27 27 26 26 27 27 27 26 26
19 19 20 20 20 21 21 22 22 23 23 24 25 25 25 25 25 25 25 25 26 27 27 28 28 28 27 27 27 27 26 26 27 26 25 25 26 26 25 26 26 26 26 26
18 18 19 19 19 19 20 21 22 22 22 22 24 24 24 24 24 24 24 24 25 25 25 25 25 25 25 25 25 24 24 25 24 24 24 24 24 24 24 25 25 25 25 25
Wind_Direction
234 236 239 240 239 240 242 244 246 248 250 250 249 251 249 245 244 246 249 253 257 261 263 263 266 267 269 273 276 281 285 288 291 293 296 296 298 301 302 303 304 307 309 312
236 238 240 241 240 240 241 243 245 246 248 249 250 248 245 243 243 246 249 252 254 256 259 260 262 264 263 266 271 276 279 284 286 286 288 291 295 298 298 298 301 302 303 306
238 239 241 241 240 241 242 243 244 245 247 248 248 245 243 242 243 245 248 251 253 254 256 259 260 262 263 263 266 271 275 280 283 285 287 290 292 295 298 298 298 300 300 301
238 239 241 244 244 243 244 244 244 244 245 246 246 244 242 241 241 243 246 248 248 251 255 257 258 260 262 263 265 267 272 275 280 282 283 286 289 292 294 297 298 300 301 302
237 240 244 244 244 244 244 244 243 243 244 245 245 245 243 241 241 242 244 245 247 249 251 254 257 259 260 260 263 266 269 271 275 278 280 282 285 287 289 293 295 297 298 300
238 240 243 245 244 243 244 246 243 243 243 243 244 244 243 241 241 241 243 245 247 249 250 254 256 257 258 259 262 265 267 269 271 273 275 279 281 284 286 289 292 294 296 297
240 243 244 244 245 243 243 245 245 243 243 243 243 243 241 239 241 242 244 247 249 249 249 252 253 255 256 257 260 262 265 267 269 271 272 274 277 282 285 287 289 291 294 295
238 241 244 244 244 243 243 244 244 243 242 243 242 241 240 240 241 242 244 247 249 249 249 249 251 253 254 255 258 261 264 266 269 271 271 272 274 279 282 285 286 289 291 291
238 240 243 244 244 245 245 245 244 243 241 241 241 240 241 242 242 243 244 246 246 248 249 250 251 252 252 255 258 261 262 266 266 269 270 272 274 276 280 283 284 286 287 289
240 240 242 244 245 245 244 244 241 239 240 242 241 241 242 244 244 245 247 247 246 247 247 249 251 252 254 256 260 263 265 268 268 268 270 271 274 277 278 280 281 282 284 286
238 238 240 242 243 243 243 242 240 239 239 240 241 243 244 244 244 246 248 248 248 247 247 248 250 251 255 259 262 265 266 267 269 268 268 270 272 276 278 279 279 280 281 283
238 237 239 241 241 242 241 241 239 239 238 240 243 243 244 244 244 246 247 248 247 246 247 248 251 253 256 259 263 266 267 266 266 267 268 271 273 276 280 280 280 280 281 283
238 238 240 241 242 241 242 240 238 239 240 241 243 244 243 243 244 244 245 246 247 247 247 249 252 253 255 258 261 264 267 269 269 267 270 273 273 276 277 278 278 279 281 283
237 238 239 240 241 241 241 240 239 239 241 242 244 244 245 245 245 244 243 244 246 247 248 250 252 253 256 258 260 263 266 268 268 268 271 271 272 274 276 277 277 278 280 282
235 236 237 238 240 242 241 240 240 241 243 245 246 246 246 246 245 245 243 242 244 246 248 250 252 254 257 259 260 263 266 267 268 269 271 272 272 273 275 276 276 277 279 281
236 235 236 237 239 240 240 240 240 242 244 246 247 247 247 247 246 246 245 243 245 247 249 253 255 257 259 260 260 262 264 266 268 269 270 271 272 274 276 277 276 277 278 279
237 237 237 237 237 238 239 241 242 243 244 245 246 247 246 245 247 248 249 250 249 250 253 255 257 260 261 262 263 263 265 267 268 268 270 272 273 274 275 275 275 276 277 279
237 237 237 236 237 238 239 242 243 243 243 243 244 246 246 247 248 250 251 251 251 252 254 256 258 260 261 261 263 264 265 267 268 268 270 270 271 272 273 274 274 275 277 278
237 236 235 236 236 237 239 241 243 242 242 243 244 245 247 248 249 250 250 251 252 253 254 256 258 259 261 261 261 264 265 265 266 267 269 269 270 272 273 273 274 276 277 278
235 235 235 236 236 237 239 240 242 243 244 245 246 247 248 249 249 249 249 250 252 254 256 257 258 258 260 261 261 262 264 266 267 268 268 269 271 271 272 274 275 276 276 277
236 236 236 237 238 239 240 242 242 242 244 245 246 246 246 248 249 250 251 252 253 254 256 257 259 259 260 261 261 263 265 267 268 269 269 269 270 270 271 273 274 275 276 277
236 236 236 237 239 240 242 243 244 244 245 246 247 247 248 249 250 252 253 254 254 255 256 256 258 259 260 261 262 263 264 266 267 269 270 269 270 270 271 272 273 275 276 277
236 237 237 238 239 241 243 245 246 245 246 248 249 250 250 250 251 252 253 255 254 254 255 256 258 259 260 260 262 264 265 266 268 269 271 272 271 270 270 271 273 275 277 278
240 240 240 242 244 245 246 246 247 246 246 247 248 247 248 248 250 252 252 253 254 254 254 256 258 259 259 260 262 264 265 267 268 270 271 271 271 271 272 274 276 276 278 279
241 243 245 246 247 246 246 246 246 246 247 247 247 248 249 251 253 254 254 254 254 254 256 257 259 260 261 262 263 265 267 268 268 268 269 270 272 275 275 275 276 279 279 279
241 244 246 247 248 246 245 245 245 248 248 247 248 248 248 251 253 254 254 255 255 256 257 259 260 261 262 263 264 266 267 268 268 268 270 272 274 276 276 276 278 279 279 279
243 244 246 247 247 246 244 244 245 247 247 247 248 247 247 249 251 253 254 255 255 256 257 258 259 260 261 262 263 263 265 268 269 271 272 274 275 276 276 277 279 281 280 279
Height
5845 5848 5851 5854 5857 5860 5863 5866 5870 5873 5875 5878 5880 5881 5883 5885 5887 5888 5890 5891 5892 5892 5892 5893 5893 5894 5894 5894 5893 5893 5892 5891 5890 5890 5888 5888 5887 5886 5884 5883 5882 5880 5879 5877
5838 5841 5843 5846 5849 5852 5855 5859 5862 5865 5868 5870 5872 5875 5877 5879 5881 5883 5885 5886 5887 5887 5888 5888 5889 5889 5889 5890 5889 5889 5888 5888 5887 5887 5886 5885 5884 5883 5882 5880 5879 5877 5876 5874
5830 5833 5835 5837 5842 5845 5848 5851 5854 5857 5861 5862 5865 5867 5870 5873 5875 5877 5879 5880 5881 5882 5883 5883 5884 5884 5885 5885 5885 5885 5885 5884 5884 5883 5882 5881 5880 5879 5878 5877 5875 5874 5872 5870
5822 5825 5826 5833 5835 5837 5840 5843 5846 5849 5852 5854 5857 5860 5863 5865 5868 5870 5872 5874 5875 5876 5877 5878 5878 5879 5879 5880 5880 5880 5880 5880 5880 5879 5878 5877 5877 5876 5874 5873 5871 5870 5868 5866
5814 5816 5819 5824 5826 5829 5832 5834 5837 5840 5844 5846 5849 5852 5855 5857 5860 5863 5865 5867 5868 5869 5870 5871 5872 5873 5873 5874 5875 5875 5875 5875 5875 5874 5873 5873 5872 5871 5869 5868 5867 5865 5863 5862
5805 5808 5811 5816 5818 5820 5824 5825 5829 5832 5835 5838 5841 5844 5847 5850 5852 5855 5857 5859 5861 5862 5863 5864 5866 5867 5867 5868 5869 5869 5869 5869 5869 5869 5868 5867 5867 5865 5864 5863 5861 5860 5858 5857
5796 5799 5803 5807 5809 5812 5816 5819 5821 5823 5826 5829 5832 5836 5839 5841 5844 5846 5849 5851 5853 5854 5856 5857 5858 5860 5861 5861 5862 5862 5862 5862 5862 5862 5862 5861 5860 5859 5858 5857 5855 5854 5853 5851
5788 5791 5797 5797 5800 5804 5807 5810 5812 5815 5818 5821 5824 5827 5830 5832 5835 5838 5840 5842 5844 5846 5847 5849 5850 5852 5853 5854 5855 5855 5855 5855 5855 5854 5854 5854 5853 5853 5852 5850 5849 5848 5846 5845
5780 5784 5786 5788 5791 5794 5798 5801 5804 5807 5810 5813 5816 5819 5821 5824 5827 5829 5832 5834 5836 5837 5839 5841 5842 5844 5845 5846 5847 5848 5848 5847 5847 5847 5847 5846 5846 5845 5844 5843 5842 5841 5839 5837
5770 5774 5777 5779 5782 5786 5789 5793 5796 5799 5802 5804 5807 5810 5813 5816 5818 5820 5823 5825 5827 5829 5831 5833 5834 5835 5837 5838 5839 5839 5839 5839 5839 5839 5839 5839 5838 5837 5836 5835 5834 5833 5831 5830
5759 5764 5767 5770 5774 5777 5781 5784 5787 5790 5793 5796 5799 5801 5804 5807 5809 5812 5814 5816 5818 5820 5822 5824 5826 5827 5829 5830 5830 5831 5831 5831 5831 5831 5830 5830 5830 5829 5828 5827 5826 5825 5824 5822
5751 5755 5758 5762 5765 5769 5772 5775 5778 5782 5785 5787 5790 5793 5795 5798 5800 5803 5805 5807 5809 5811 5813 5815 5817 5819 5820 5821 5822 5822 5822 5822 5822 5822 5822 5821 5821 5820 5819 5818 5817 5816 5815 5814
5741 5745 5749 5754 5757 5760 5763 5766 5769 5773 5776 5778 5781 5783 5786 5789 5791 5794 5796 5798 5800 5802 5804 5806 5808 5810 5811 5812 5813 5813 5813 5813 5813 5813 5813 5812 5812 5811 5811 5810 5809 5808 5806 5805
5732 5736 5741 5745 5748 5751 5754 5757 5760 5764 5767 5769 5772 5774 5777 5779 5782 5785 5787 5790 5792 5794 5795 5797 5799 5801 5802 5803 5803 5803 5804 5804 5803 5803 5803 5803 5803 5802 5801 5800 5799 5798 5797 5796
5724 5728 5732 5736 5739 5742 5745 5748 5752 5755 5758 5760 5763 5765 5768 5771 5774 5776 5778 5780 5783 5785 5786 5788 5790 5791 5792 5793 5793 5794 5794 5794 5794 5794 5794 5794 5794 5793 5792 5791 5790 5789 5788 5786
5716 5719 5723 5727 5730 5733 5736 5740 5743 5746 5749 5751 5754 5757 5759 5762 5764 5767 5769 5771 5773 5776 5777 5779 5780 5782 5782 5783 5783 5784 5784 5785 5785 5785 5784 5784 5784 5783 5782 5781 5779 5779 5778 5777
5708 5712 5715 5719 5722 5725 5728 5731 5735 5738 5740 5743 5745 5747 5750 5752 5755 5758 5760 5762 5764 5766 5768 5770 5771 5772 5772 5773 5773 5774 5774 5775 5775 5774 5774 5774 5774 5773 5772 5771 5770 5769 5768 5767
5700 5704 5707 5711 5714 5717 5720 5723 5726 5729 5732 5734 5737 5739 5741 5743 5746 5749 5751 5753 5755 5757 5759 5760 5761 5762 5762 5763 5763 5764 5764 5764 5764 5764 5764 5764 5763 5763 5762 5761 5760 5759 5758 5757
5693 5696 5699 5702 5706 5709 5712 5715 5718 5720 5723 5725 5727 5730 5732 5734 5737 5739 5741 5743 5745 5747 5749 5750 5751 5752 5752 5753 5753 5753 5754 5754 5754 5753 5753 5753 5752 5752 5752 5751 5751 5750 5748 5747
5686 5689 5692 5695 5698 5701 5704 5707 5709 5712 5714 5716 5718 5720 5723 5725 5727 5729 5731 5733 5735 5737 5738 5739 5740 5741 5741 5742 5742 5743 5743 5743 5743 5743 5742 5742 5742 5741 5741 5741 5740 5739 5738 5737
5680 5682 5685 5688 5690 5693 5696 5698 5700 5702 5704 5706 5708 5710 5713 5715 5717 5719 5721 5723 5725 5726 5727 5728 5729 5730 5730 5731 5731 5732 5732 5733 5733 5732 5731 5731 5730 5730 5730 5730 5730 5729 5728 5727
5673 5676 5678 5681 5683 5685 5687 5689 5691 5693 5695 5697 5699 5701 5703 5705 5707 5709 5711 5713 5715 5716 5717 5718 5719 5720 5720 5721 5721 5722 5722 5722 5722 5722 5722 5721 5721 5720 5720 5720 5720 5719 5718 5718
5667 5670 5672 5674 5676 5678 5679 5681 5683 5684 5686 5688 5690 5692 5694 5696 5698 5700 5701 5702 5704 5705 5706 5708 5709 5710 5711 5712 5712 5713 5713 5713 5713 5713 5713 5712 5712 5711 5711 5711 5710 5710 5709 5708
5662 5664 5666 5667 5669 5671 5672 5673 5675 5676 5678 5680 5681 5683 5685 5687 5689 5691 5692 5694 5695 5696 5697 5699 5700 5701 5702 5703 5703 5703 5704 5704 5704 5704 5703 5703 5702 5702 5702 5702 5701 5700 5700 5699
5657 5659 5660 5661 5663 5664 5665 5667 5668 5670 5671 5673 5674 5676 5678 5679 5681 5683 5684 5685 5687 5688 5689 5691 5691 5692 5692 5693 5694 5694 5695 5695 5695 5695 5694 5694 5694 5694 5693 5693 5693 5692 5691 5690
5652 5653 5655 5656 5657 5658 5659 5661 5662 5663 5664 5666 5668 5669 5671 5673 5674 5675 5676 5678 5679 5680 5681 5682 5682 5683 5684 5685 5685 5686 5686 5686 5686 5686 5686 5686 5686 5685 5685 5685 5684 5684 5683 5682
5646 5648 5649 5650 5651 5652 5653 5654 5656 5657 5658 5660 5661 5662 5664 5665 5667 5668 5669 5671 5672 5672 5673 5674 5674 5675 5676 5677 5677 5678 5678 5678 5678 5678 5678 5678 5678 5677 5677 5677 5676 5675 5674 5674